Home   Weather   Dakar   Past weeks

Flag for Senegal Past Weather in Dakar, Senegal — Yesterday and Last 2 Weeks

Now
81 °F

Passing clouds.


Feels Like: 87 °F
Forecast: 80 / 84 °F
Wind: 7 mph from South

Location: Dakar / Yoff

Current Time: Aug 31, 2016 at 2:27:21 AM

Latest Report: Aug 31, 2016 at 2:00 AM


Visibility: N/A

Pressure: 29.92 "Hg

Humidity: 89%

Dew Point: 77 °F

Location of DakarLocation

Past Weather in Dakar — Graph

°F

Dakar Temperature Yesterday

Maximum temperature yesterday: 84 °F (at 10:30 AM)
Minimum temperature yesterday: 75 °F (at 2:00 PM)
Average temperature yesterday: 80 °F

High & Low Weather Summary for the Past Weeks

 TemperatureHumidityPressure
High90 °F (Aug 21, 4:00 PM)100% (Aug 16, 4:00 PM)30.04 "Hg (Aug 16, 4:00 PM)
Low75 °F (Aug 17, 11:00 PM)63% (Aug 21, 4:00 PM)29.74 "Hg (Aug 25, 4:30 PM)
Average82 °F83%29.88 "Hg
* Reported Aug 16 1:00 AM — Aug 31 1:00 AM, Dakar, Weather by CustomWeather, © 2016

Note: Actual official high and low records may vary slightly from our data, if they occured in-between our weather recording intervals... More about our weather records

Advertising

Dakar Weather History for the Previous 24 Hours

Scroll right to see more
 ConditionsComfort  
Time TempWeatherWind HumidityBarometerVisibility
1:00 AM
Wed, Aug 31
81 °FPassing clouds.6 mph89%29.95 "HgN/A
12:30 AM81 °FPassing clouds.6 mph89%29.95 "HgN/A
12:00 AM81 °FPassing clouds.6 mph89%29.95 "HgN/A
11:30 PM
Tue, Aug 30
81 °FPassing clouds.5 mph89%29.95 "Hg6 mi
11:00 PM81 °FPassing clouds.7 mph89%29.92 "Hg6 mi
10:30 PM81 °FPassing clouds.6 mph89%29.92 "Hg5 mi
10:00 PM81 °FPassing clouds.5 mph89%29.92 "Hg5 mi
9:30 PM81 °FPassing clouds.7 mph89%29.92 "Hg5 mi
9:00 PM81 °FPassing clouds.6 mph89%29.89 "Hg5 mi
8:30 PM81 °FPassing clouds.6 mph89%29.89 "Hg6 mi
8:00 PM79 °FPassing clouds.5 mph94%29.89 "Hg6 mi
7:30 PM79 °FPassing clouds.6 mph94%29.89 "Hg6 mi
7:00 PM79 °FPartly sunny.6 mph94%29.89 "Hg6 mi
6:30 PM79 °FPartly sunny.7 mph89%29.89 "Hg6 mi
6:00 PM79 °FPartly sunny.5 mph89%29.89 "Hg6 mi
5:30 PM79 °FPartly sunny.5 mph89%29.89 "Hg6 mi
5:00 PM77 °FPartly sunny.7 mph94%29.89 "Hg6 mi
4:30 PM77 °FLight rain. Partly sunny.3 mph94%29.89 "Hg5 mi
4:00 PM75 °FLight rain. Partly sunny.5 mph94%29.89 "Hg5 mi
3:30 PM77 °FRain. Partly sunny.9 mph94%29.89 "Hg2 mi
3:00 PM77 °FPartly sunny.No wind89%29.89 "Hg4 mi
2:30 PM77 °FThunderstorms. Scattered clouds.7 mph94%29.89 "Hg2 mi
2:00 PM75 °FStrong thunderstorms. Broken clouds.8 mph94%29.89 "Hg1 mi
1:30 PM77 °FStrong thunderstorms. More clouds than sun.5 mph94%29.89 "Hg1 mi
1:00 PM79 °FRain. More clouds than sun.13 mph84%29.89 "Hg3 mi
12:30 PM79 °FLight rain. More clouds than sun.13 mph84%29.89 "Hg5 mi
12:00 PM79 °FLight rain. More clouds than sun.13 mph89%29.89 "Hg4 mi
11:30 AM82 °FScattered clouds.13 mph79%29.89 "HgN/A
11:00 AM84 °FLight rain. Scattered clouds.8 mph79%29.89 "HgN/A
10:30 AM84 °FLight rain. Scattered clouds.10 mph84%29.89 "HgN/A
10:00 AM82 °FLight rain. Scattered clouds.7 mph84%29.89 "HgN/A
9:30 AM82 °FLight rain. Scattered clouds.8 mph84%29.89 "HgN/A
9:00 AM82 °FScattered clouds.7 mph84%29.86 "HgN/A
8:30 AM82 °FScattered clouds.6 mph84%29.86 "HgN/A
8:00 AM82 °FScattered clouds.5 mph84%29.86 "HgN/A
7:30 AM81 °FPassing clouds.7 mph89%29.83 "HgN/A
7:00 AM81 °FPassing clouds.5 mph89%29.83 "HgN/A
6:30 AM81 °FPassing clouds.3 mph94%29.83 "HgN/A
6:00 AM81 °FPassing clouds.3 mph89%29.83 "HgN/A
5:30 AM81 °FPassing clouds.5 mph94%29.80 "HgN/A
5:00 AM81 °FThunderstorms. Passing clouds.5 mph89%29.80 "HgN/A
4:30 AM81 °FThunderstorms. Partly cloudy.7 mph89%29.83 "Hg6 mi
4:00 AM82 °FPassing clouds.5 mph84%29.83 "HgN/A
3:30 AM82 °FPassing clouds.1 mph84%29.83 "HgN/A
3:00 AM82 °FPassing clouds.3 mph84%29.83 "HgN/A
2:30 AM82 °FPassing clouds.2 mph84%29.86 "HgN/A
2:00 AM82 °FPassing clouds.No windN/A29.86 "HgN/A
Weather by CustomWeather, © 2016

See weather overviewHow to use our weather pages